Retour au catalogue

CZ-6A DEB

ActifPO
NORAD 60802·DEBRIS·🇨🇳 China

Lancé Aug 6, 2024 depuis Taiyuan Satellite Launch Center

Loading…

Prochains Passages (prochaines 24 heures)

TLE

FraisSource: Space-Track

Époque: Sep 14, 2026, 06:46 UTC

1 60802U 24140GD  26257.28201196  .00000417  00000-0  82204-4 0  9990
2 60802  89.0346 262.8813 0128890 315.6455  43.4484 14.55443491110981

Suivez CZ-6A DEB en temps réel avec AllMySat

Download on the App Store